Terminal Aerodrome Forecast
Issued by NWS

Home | Current Version | Previous Version | Text Only | Print | Product List | Glossary On
Versions: 1 2 3 4 5 6 7 8 9 10 11 12 13 14 15 16 17 18 19 20 21 22 23 24 25 26 27 28 29 30 31 32 33 34 35 36 37 38 39 40 41 42 43 44
000
FTAK31 PAFA 010527
TAFASC
TAF
PASC 010527Z 0106/0206 07009KT P6SM VCSH BKN090 OVC100
     FM011200 22007KT 4SM -RA BR OVC007
     FM011900 26010KT 6SM -RA BR SCT007 OVC015
     FM020000 29012KT 4SM -RA BR OVC007=

USA.gov is the U.S. government's official web portal to all federal, state and local government web resources and services.